This demonstration page uses our WeatherBlox Daily Observations layout. Learn more.

Left ArrowRight Arrow

Hourly Observations for June 2, 2021

Temp ( °F °C ) Dew Point ( °F °C ) Humidity (%) Winds ( mph kmh ) Pressure ( in mb ) Visibility ( mi km ) Precip ( " mm )
12:56 am 00:56 Clear 57 13.9 47 8.3 69 69 SSW 6 9 30.06 1018 10 16 0.00 0.00
1:56 am 01:56 Clear 57 13.9 48 8.9 72 72 SW 6 9 30.05 1018 10 16 0.00 0.00
2:56 am 02:56 Clear 56 13.3 51 10.6 84 84 SW 6 9 30.02 1017 10 16 0.00 0.00
3:56 am 03:56 Clear 54 12.2 49 9.4 83 83 Calm 30.01 1016 10 16 0.00 0.00
4:56 am 04:56 Clear 52 11.1 49 9.4 89 89 Calm 30.02 1017 10 16 0.00 0.00
5:56 am 05:56 Clear 50 10 49 9.4 96 96 Calm 30.02 1017 10 16 0.00 0.00
6:56 am 06:56 Sunny 51 10.6 49 9.4 92 92 NW 3 6 30.03 1017 10 16 0.00 0.00
7:56 am 07:56 Sunny 56 13.3 54 12.2 93 93 WNW 3 6 30.02 1017 10 16 0.00 0.00
8:20 am 08:20 Mostly Sunny 61 16 55 13 83 83 NW 6 9 30.01 1016 10 16 0.00 0.00
8:56 am 08:56 Sunny 63 17.2 57 13.9 81 81 NW 6 9 30.03 1017 10 16 0.00 0.00
9:56 am 09:56 Sunny 68 20 54 12.2 61 61 NNW 3 6 30.02 1017 10 16 0.00 0.00
10:56 am 10:56 Sunny 69 20.6 51 10.6 53 53 SSE 6 9 30.01 1016 10 16 0.00 0.00
11:56 am 11:56 Sunny 71 21.7 51 10.6 49 49 ESE 7 11 30.01 1016 10 16 0.00 0.00
12:56 pm 12:56 Sunny 73 22.8 48 8.9 41 41 ESE 9 15 30.01 1016 10 16 0.00 0.00
1:56 pm 13:56 Mostly Sunny 73 22.8 47 8.3 40 40 ESE 10 17 29.99 1016 10 16 0.00 0.00
2:56 pm 14:56 Mostly Sunny 75 23.9 46 7.8 36 36 ESE 12 19 29.98 1015 10 16 0.00 0.00
3:56 pm 15:56 Mostly Cloudy 75 23.9 45 7.2 34 34 SSE 7 11 29.97 1015 10 16 0.00 0.00
4:56 pm 16:56 Sunny 76 24.4 46 7.8 35 35 SE 9 15 29.96 1015 10 16 0.00 0.00
5:56 pm 17:56 Sunny 76 24.4 44 6.7 32 32 SSE 3 6 29.95 1014 10 16 0.00 0.00
6:56 pm 18:56 Sunny 76 24.4 43 6.1 31 31 SW 5 7 29.94 1014 10 16 0.00 0.00
7:56 pm 19:56 Sunny 73 22.8 48 8.9 41 41 SSE 7 11 29.94 1014 10 16 0.00 0.00
8:56 pm 20:56 Sunny 69 20.6 50 10 51 51 ESE 7 11 29.94 1014 10 16 0.00 0.00
9:56 pm 21:56 Clear 64 17.8 50 10 60 60 SSE 8 13 29.95 1014 10 16 0.00 0.00
10:56 pm 22:56 Clear 61 16.1 50 10 67 67 S 8 13 29.97 1015 10 16 0.00 0.00
11:56 pm 23:56 Clear 60 15.6 49 9.4 67 67 SSW 7 11 29.97 1015 10 16 0.00 0.00

Powered by AerisWeather